Regional Weather Roundup
Issued by NWS

Home | Current Version | Previous Version | Text Only | Print | Product List | Glossary Off
Versions: 1 2 3 4 5 6 7 8 9 10 11 12 13 14 15 16 17 18 19 20 21 22 23 24 25 26 27 28 29 30 31 32 33 34 35 36 37 38 39 40 41 42 43 44 45 46 47 48 49 50

000
ASUS43 KLOT 272010
RWRIL

ILLINOIS REGIONAL WEATHER ROUNDUP
NATIONAL WEATHER SERVICE CHICAGO/ROMEOVILLE IL
300 PM CDT WED AUG 27 2014

NOTE: "FAIR" INDICATES FEW OR NO CLOUDS BELOW 12,000 FEET WITH NO
SIGNIFICANT WEATHER AND/OR OBSTRUCTIONS TO VISIBILITY.

* THESE STATIONS ARE NOT UNDER NWS QUALITY CONTROL. THEY ALSO MAY NOT
  REPORT WEATHER SUCH AS PRECIPITATION OR FOG.

ILZ001-002-007-009-015-016-024-272100-
NORTHWEST ILLINOIS

CITY           SKY/WX    TMP DP  RH WIND       PRES   REMARKS
MOLINE         CLOUDY    79  63  57 NW5       30.14F HX  80
STERLING*      CLOUDY    81  63  54 N3        30.15F HX  82
SAVANNA*       CLOUDY    78  58  49 NW5       30.16S
$$

ILZ003-004-008-010-011-017-018-272100-
NORTH CENTRAL ILLINOIS

CITY           SKY/WX    TMP DP  RH WIND       PRES   REMARKS
ROCKFORD       CLOUDY    78  56  46 W8        30.16F
FREEPORT*      CLOUDY    75  61  61 NE5       30.19F
ROCHELLE*      CLOUDY    78  59  52 CALM      30.15F
DE KALB*       PTSUNNY   76  62  63 N6        30.16S
PERU*          PTSUNNY   80  64  57 NW3       30.14F HX  82
$$

ILZ005-006-012>014-019>023-272100-
NORTHEAST ILLINOIS

CITY           SKY/WX    TMP DP  RH WIND       PRES   REMARKS
CHICAGO-OHARE  PTSUNNY   78  62  57 NE9       30.13S HX  80
CHICAGO-MIDWAY PTSUNNY   80  64  58 NE9       30.12F HX  82
AURORA         MOSUNNY   80  61  52 NW5       30.14S HX  81
LANSING*       MOSUNNY   77  63  62 NE8       30.13F
JOLIET*        MOSUNNY   81  58  45 W3        30.13F HX  81
WAUKEGAN       MOSUNNY   72  63  73 N7        30.15S
DUPAGE AIRPORT MOSUNNY   83  58  42 CALM      30.13F HX  83
KANKAKEE*      PTSUNNY   80  67  64 NE5       30.12F HX  82
WHEELING       MOSUNNY   77  64  64 NE9       30.15F
MORRIS*        MOSUNNY   81  65  59 CALM      30.12F HX  82
ROMEOVILLE*    MOSUNNY   81  62  52 CALM      30.12F HX  82
NORTHERLY ISL    N/A     74  64  71 N9          N/A
$$

LMZ740>746-272100-
SOUTHERN LAKE MICHIGAN

STATION/POSITION SKY/WX   TEMP    WIND        PRES    VSBY  WAVE
                          AIR SEA DIR/SP/G                  HT/PER
                          (F)     (DEG/KT/KT) (MB)    (MI)  (FT/S)
SOUTHERN BUOY              68 71  360/  8/  8 1021.3F         1
WAUKEGAN HARBOR            70      40/  9/ 10   N/A
HARRISON CRIB              70      30/  9/ 11   N/A
BURNHAM HARBOR             73      20/  7/ 10   N/A
CALUMET HARBOR             72      10/  8/ 12 1019.3F
MICHIGAN CITY              70     360/ 14/ 15   N/A
MICHIGAN CITY 6N           71 74   20/ 10/ 12   N/A           2/ 2
ST. JOSEPH                 70 74  360/ 12/ 14   N/A           2/ 2
$$

ILZ025>027-034>036-040-047-049-050-058-095>099-272100-
WEST-CENTRAL ILLINOIS

CITY           SKY/WX    TMP DP  RH WIND       PRES   REMARKS
QUINCY         PTSUNNY   83  73  72 NE10      30.11F HX  89
GALESBURG*     CLOUDY    80  69  69 N6        30.14F HX  83
MACOMB*        CLOUDY    80  71  73 NE5       30.15F HX  83
JACKSONVILLE*  TSTM      74  69  85 N5G20     30.11F
PITTSFIELD*    MOSUNNY   82  71  69 N7        30.11F HX  86
$$

ILZ028>032-037-038-041>044-048-051>054-059>061-272100-
CENTRAL ILLINOIS

CITY           SKY/WX    TMP DP  RH WIND       PRES   REMARKS
PONTIAC        CLOUDY    82  70  65 CALM      30.12F HX  86
DECATUR        PTSUNNY   86  75  69 E5        30.10F HX  95
PEORIA         CLOUDY    83  67  58 N6        30.12F HX  85
LACON*         PTSUNNY   80  67  64 N6        30.12F HX  82
LINCOLN*       PTSUNNY   85  73  67 N5        30.07S HX  92
SPRINGFIELD    CLOUDY    84  74  71 N7        30.10F HX  91
TAYLORVILLE    CLOUDY    84  75  74 N5        30.09F HX  92
$$

ILZ033-039-045-046-055>057-062-063-272100-
EAST-CENTRAL ILLINOIS

CITY           SKY/WX    TMP DP  RH WIND       PRES   REMARKS
CHAMPAIGN      PTSUNNY   87  72  60 N3        30.10F HX  93
DANVILLE*      PTSUNNY   83  73  72 N5        30.07F HX  89
RANTOUL*       PTSUNNY   85  69  57 N5        30.11F HX  89
MATTOON        PTSUNNY   86  74  67 N5        30.08F HX  94
PARIS*         MOSUNNY   87  73  63 CALM      30.09F HX  95
$$

ILZ079-100>102-272100-
SOUTHWEST ILLINOIS

CITY           SKY/WX    TMP DP  RH WIND       PRES   REMARKS
ALTON          MOSUNNY   90  73  58 CALM      30.07F HX  98
BELLEVILLE     MOSUNNY   92  75  56 CALM      30.05F HX 103
SPARTA*        MOSUNNY   89  76  65 CALM      30.07F HX 100
$$

ILZ064>066-069>071-074>076-080>082-084>086-088>090-092>094-272100-
SOUTH-CENTRAL ILLINOIS

CITY           SKY/WX    TMP DP  RH WIND       PRES   REMARKS
CARBONDALE     MOSUNNY   93  72  50 VRB3      30.05F HX 101
CAIRO*         SUNNY     94  71  47 N5        30.05F HX 101
EFFINGHAM*     CLOUDY    90  71  53 NW6       30.07F HX  95
MARION         MOSUNNY   93  72  49 N8        30.06F HX 100
MT. VERNON     PTSUNNY   88  73  62 N3        30.07F HX  96
SALEM*         MOSUNNY   91  77  62 NW5       30.08S HX 105
METROPOLIS*    PTSUNNY   91  74  58 CALM      30.05F HX 100
$$

ILZ067-068-072-073-078-083-087-091-272100-
SOUTHEAST ILLINOIS

CITY           SKY/WX    TMP DP  RH WIND       PRES   REMARKS
LAWRENCEVILLE  MOSUNNY   91  76  61 N8        30.06F HX 103
FLORA*         SUNNY     88  74  63 N6        30.06F HX  96
FAIRFIELD*     SUNNY     91  81  70 CALM      30.05F HX 110
HARRISBURG*    SUNNY     91  70  49 NE5       30.07F HX  97
ROBINSON*      SUNNY     91  74  58 N6        30.07F HX 101
CARMI*         SUNNY     93  75  55 NW3       30.05F HX 104
$$

ABBREVIATIONS USED IN REMARKS
   TC - TEMPERATURE IN CELSIUS
  WCI - WIND CHILL INDEX
   HX - HEAT INDEX
  VSB - VISIBILITY
$$



USA.gov is the U.S. government's official web portal to all federal, state and local government web resources and services.